Pagina principale
METAR-TAF:

METAR-TAF

Aeroporti :

Aeroporto di Padova

Padova, Italia

latitudine: 45-23-45N, longitudine: 11-50-53E, altezza: 13 m

Osservazione

Il bollettino è stato emesso 1 ora e 49 minuti fa, alle 13:50 UTC
Vento 3 kt da ovest, variando fra sud/sud-ovest e nord
Temperature 23°C
Umidità 50%
Pressione 998 hPa
Visibilità 10 km o più
Nubi sparse ad un'altezza di 3000 ft

METAR: LIPU 271350Z 28003KT 200V360 9999 SCT030 23/12 Q0998

Ora: 17:39 (15:39 UTC)


TAF: mancante

Osservazioni e previsioni meteorologiche di più di 4000 aeroporti (messaggi METAR e TAF).

Le stazioni disponibili sono rappresentate dai dischi gialli e rossi sulla carta.

Puntare il mouse per vedere il nome della stazione.

Clicca sopra per visualizzare le osservazioni e previsioni meteorologiche.

Per cambiare la mappa : fare clic sui pulsanti verdi con una croce nera per ingrandire, il pulsante verde con un trattino per diminuire, o sulla freccia verde per le mappe adiacenti.


METAR-TAF: